EW9592 Weather Reports


Display with metric or nautical units.
time (UTC)temp
F
wind
direction
speed
MPH
gust
MPH
rain 1hr
in
rain 24hr
in
rain mn
in
humidity
%
barometer
mb
20260510104550 53 131 0.0 0.0 0.00 0.00 0.00 92 1012.8
20260510103053 53 131 0.0 0.0 0.00 0.00 0.00 92 1012.5
20260510101559 53 131 0.0 0.0 0.00 0.00 0.00 92 1012.3
20260510100052 53 131 0.0 0.0 0.00 0.00 0.00 92 1012.1
20260510094551 52 131 0.0 0.0 0.00 0.00 0.00 92 1012.2
20260510093045 52 131 0.0 0.0 0.00 0.00 0.00 92 1012.2
20260510091543 53 131 0.0 0.0 0.00 0.00 0.00 92 1011.8
20260510090041 53 131 0.0 0.0 0.00 0.00 0.00 91 1011.7
20260510084542 53 131 0.0 0.0 0.00 0.00 0.00 91 1011.8
20260510083039 53 131 0.0 0.0 0.00 0.00 0.00 91 1011.7
20260510081542 53 131 0.0 0.0 0.00 0.00 0.00 91 1011.7
20260510080056 53 131 0.0 0.0 0.00 0.00 0.00 91 1011.5
20260510074538 53 131 0.0 0.0 0.00 0.00 0.00 91 1011.2
20260510073041 53 131 0.0 0.0 0.00 0.00 0.00 91 1011.1
20260510071535 53 131 0.0 0.0 0.00 0.00 0.00 91 1011.1
20260510070043 53 131 0.0 0.0 0.00 0.00 0.00 90 1011.0
20260510064531 54 131 0.0 0.0 0.00 0.00 0.00 90 1010.9
20260510063035 54 131 0.0 0.0 0.00 0.00 0.00 90 1011.0
20260510061527 54 131 0.0 0.0 0.00 0.00 0.00 89 1011.1
20260510060036 54 131 0.0 0.0 0.00 0.00 0.00 89 1011.1
20260510054524 55 131 0.0 0.0 0.00 0.00 0.00 88 1011.2
20260510053024 55 131 0.0 0.0 0.00 0.00 0.00 88 1011.3
20260510051522 55 131 0.0 0.0 0.00 0.00 0.00 87 1011.3
20260510050026 55 131 0.0 0.0 0.00 0.00 0.00 87 1011.3
20260510044521 56 131 0.0 0.0 0.00 0.00 0.00 86 1011.3
20260510043016 56 131 0.0 0.0 0.00 0.00 0.00 85 1011.3
20260510041521 56 131 0.0 0.0 0.00 0.00 0.00 85 1011.2
20260510040013 57 131 0.0 0.0 0.00 0.00 0.00 84 1011.2
20260510034511 57 131 0.0 0.0 0.00 0.00 0.00 83 1011.3
20260510033011 58 131 0.0 0.0 0.00 0.00 0.00 82 1011.4
20260510031515 58 131 0.0 0.0 0.00 0.00 0.00 81 1011.4
20260510030109 59 131 0.0 0.0 0.00 0.00 0.00 80 1011.2
20260510024509 60 131 0.0 0.0 0.00 0.00 0.00 79 1011.1
20260510023007 60 131 0.0 0.0 0.00 0.00 0.00 78 1011.0
20260510021517 61 131 0.0 0.0 0.00 0.00 0.00 75 1010.7
20260510020002 62 131 0.0 0.0 0.00 0.00 0.00 73 1010.4
20260510014601 63 131 0.0 0.0 0.00 0.00 0.00 71 1010.3
20260510013111 64 131 0.0 0.0 0.00 0.00 0.00 71 1010.0
20260510011556 65 131 0.0 0.0 0.00 0.00 0.00 68 1009.7
20260510010059 66 131 0.0 0.0 0.00 0.00 0.00 64 1009.5
20260510004553 68 131 0.0 0.0 0.00 0.00 0.00 61 1009.1
20260510003051 69 131 0.0 0.0 0.00 0.00 0.00 62 1009.0
20260510001550 71 131 0.0 1.0 0.00 0.00 0.00 57 1008.7
20260510000049 72 117 0.0 1.0 0.00 0.00 0.00 54 1008.5
20260509234547 73 160 0.0 1.0 0.00 0.00 0.00 53 1008.4
20260509233046 73 117 0.0 3.0 0.00 0.00 0.00 48 1008.4
20260509231549 75 226 0.0 3.0 0.00 0.00 0.00 51 1008.3
20260509230049 75 253 0.0 3.0 0.00 0.00 0.00 50 1008.3
20260509224544 76 100 0.0 2.0 0.00 0.00 0.00 47 1008.2
20260509223047 77 63 0.0 3.0 0.00 0.00 0.00 44 1008.3
20260509221543 77 248 0.0 4.0 0.00 0.00 0.00 45 1008.2
20260509220043 76 77 0.0 2.0 0.00 0.00 0.00 47 1008.2
20260509214542 76 70 0.0 1.0 0.00 0.00 0.00 47 1008.2
20260509213041 76 246 1.0 4.0 0.00 0.00 0.00 45 1008.3
20260509211539 76 153 1.0 9.0 0.00 0.00 0.00 48 1008.2
20260509210044 76 233 0.0 2.0 0.00 0.00 0.00 48 1008.3
20260509204538 76 356 0.0 3.0 0.00 0.00 0.00 48 1008.5
20260509203034 75 127 0.0 8.0 0.00 0.00 0.00 49 1008.5
20260509201537 75 287 0.0 3.0 0.00 0.00 0.00 54 1008.7
20260509200031 75 82 0.0 5.0 0.00 0.00 0.00 53 1008.7
20260509194543 74 143 0.0 3.0 0.00 0.00 0.00 54 1009.0
20260509193031 74 357 0.0 3.0 0.00 0.00 0.00 53 1009.1
20260509191528 74 138 1.0 5.0 0.00 0.00 0.00 53 1009.1
20260509190027 74 128 0.0 2.0 0.00 0.00 0.00 56 1009.2
20260509184527 73 252 0.0 2.0 0.00 0.00 0.00 58 1009.4
20260509183023 72 115 1.0 5.0 0.00 0.00 0.00 55 1009.5
20260509181521 72 218 0.0 3.0 0.00 0.00 0.00 57 1009.3
20260509180017 71 204 2.0 5.0 0.00 0.00 0.00 57 1009.4
20260509174515 71 49 0.0 3.0 0.00 0.00 0.00 60 1009.5
20260509173022 70 125 1.0 4.0 0.00 0.00 0.00 60 1009.6
20260509171512 70 9 0.0 4.0 0.00 0.00 0.00 61 1009.4
20260509170014 69 233 0.0 4.0 0.00 0.00 0.00 63 1009.5
20260509164511 69 23 0.0 5.0 0.00 0.00 0.00 62 1009.6
20260509163010 69 119 0.0 4.0 0.00 0.00 0.00 61 1009.3
20260509161506 68 30 0.0 3.0 0.00 0.00 0.00 65 1009.4
20260509160007 69 13 1.0 2.0 0.00 0.00 0.00 63 1009.4
20260509154502 68 114 0.0 3.0 0.00 0.00 0.00 66 1009.3
20260509153105 67 167 0.0 3.0 0.00 0.00 0.00 68 1009.2
20260509151556 66 11 0.0 4.0 0.00 0.00 0.00 70 1009.1
20260509150053 65 140 0.0 3.0 0.00 0.00 0.00 73 1009.1
20260509144551 63 359 0.0 2.0 0.00 0.00 0.00 73 1009.1
20260509143045 62 150 0.0 5.0 0.00 0.00 0.00 77 1009.1
20260509141544 60 136 0.0 3.0 0.00 0.00 0.00 80 1009.0
20260509140050 59 224 0.0 6.0 0.00 0.00 0.00 82 1009.0
20260509134534 57 150 0.0 1.0 0.00 0.00 0.00 86 1009.0
20260509133038 57 114 0.0 1.0 0.00 0.00 0.00 88 1009.0
20260509131534 56 167 0.0 1.0 0.00 0.00 0.00 89 1008.9
20260509130033 56 218 0.0 1.0 0.00 0.00 0.00 89 1008.8
20260509124532 56 219 0.0 0.0 0.00 0.00 0.00 89 1008.9
20260509123031 55 219 0.0 1.0 0.00 0.00 0.00 89 1008.8
20260509121530 55 212 0.0 0.0 0.00 0.00 0.00 90 1008.9
20260509120030 55 143 0.0 0.0 0.00 0.00 0.00 90 1008.6
20260509114534 55 143 0.0 0.0 0.00 0.00 0.00 90 1008.4
20260509113030 55 143 0.0 0.0 0.00 0.00 0.00 90 1008.2
20260509111529 55 143 0.0 0.0 0.00 0.00 0.00 90 1008.1
20260509110027 55 143 0.0 0.0 0.00 0.00 0.00 90 1007.9